Location: Plum
(40.5000°N, 79.7500°W)
Time: 07:41:02
(UTC-04:00)

MOZ.5/SAFIR/RUBIN 5/SL-8 - Visible Passes

Search period start: 23 October 2014 00:00
Search period end: 02 November 2014 00:00
Orbit: 680 x 708 km, 97.8° (Epoch: 22 October)

Date Brightness Start Highest point End Pass type
(mag) Time Alt. Az. Time Alt. Az. Time Alt. Az.
23 Oct 4.7 06:12:58 10° SSE 06:17:28 51° ENE 06:22:00 10° N visible
23 Oct 4.5 19:48:53 10° N 19:53:34 58° WNW 19:58:15 10° SSW visible
24 Oct 6.7 05:18:05 10° E 05:20:37 15° ENE 05:23:10 10° NNE visible
24 Oct 3.8 06:53:08 10° S 06:57:43 60° W 07:02:21 10° NNW visible
24 Oct 4.4 18:51:48 10° NNE 18:56:13 36° E 19:00:37 10° SSE visible
24 Oct 6.1 20:29:52 10° NNW 20:33:37 24° WNW 20:37:22 10° WSW visible
25 Oct 5.4 05:56:20 10° SE 06:00:32 35° ENE 06:04:46 10° N visible
25 Oct 3.9 19:31:48 10° NNE 19:36:36 85° WNW 19:41:22 10° SSW visible
26 Oct 3.8 06:36:02 10° SSE 06:40:41 89° WSW 06:45:24 10° NNW visible
26 Oct 5.5 20:12:28 10° N 20:16:44 33° WNW 20:21:00 10° SW visible
27 Oct 6.0 05:39:54 10° ESE 05:43:38 24° ENE 05:47:23 10° NNE visible
27 Oct 4.5 07:16:52 10° SSW 07:21:04 33° W 07:25:19 10° NNW visible
27 Oct 3.8 19:14:49 10° NNE 19:19:34 65° E 19:24:19 10° S visible
27 Oct 6.8 20:54:08 10° NNW 20:56:38 14° WNW 20:59:08 10° W visible
28 Oct 4.3 06:19:06 10° SSE 06:23:41 61° ENE 06:28:19 10° N visible
28 Oct 4.8 19:55:12 10° N 19:59:48 49° WNW 20:04:24 10° SW visible
29 Oct 6.5 05:23:47 10° ESE 05:26:46 17° ENE 05:29:47 10° NNE visible
29 Oct 4.0 06:59:27 10° S 07:03:58 50° W 07:08:33 10° NNW visible
29 Oct 4.2 18:57:56 10° NNE 19:02:30 43° E 19:07:03 10° S visible
29 Oct 6.3 20:36:20 10° NNW 20:39:48 20° WNW 20:43:16 10° WSW visible
30 Oct 5.1 06:02:21 10° SE 06:06:43 41° ENE 06:11:08 10° N visible
30 Oct 4.1 19:38:03 10° N 19:42:50 73° WNW 19:47:35 10° SSW visible
31 Oct 6.8 05:08:14 10° E 05:09:57 12° ENE 05:11:40 10° NE visible
31 Oct 3.7 06:42:15 10° S 06:46:54 76° WSW 06:51:37 10° NNW visible
31 Oct 4.7 18:41:13 10° NE 18:45:24 29° E 18:49:33 10° SSE visible
31 Oct 5.8 20:18:50 10° N 20:22:55 29° WNW 20:27:00 10° SW visible
01 Nov 5.8 05:45:49 10° SE 05:49:47 28° ENE 05:53:48 10° N visible
01 Nov 3.7 19:21:00 10° NNE 19:25:49 77° ESE 19:30:35 10° S visible
01 Nov 6.9 21:00:53 10° NW 21:02:46 12° WNW 21:04:39 10° W visible
